Location: ???? ?????????
(31.1304°N, 31.7111°E)
Time: 18:08:39
(UTC+00:00)

Timation 2 Rocket - Pass Details

Date: 29 October 2020
Orbit: 904 x 1077 km, 70.0° (Epoch: 30 November)

Event Time Altitude Azimuth Distance (km) Brightness Sun altitude
Rises 15:50:14 0° 339° (NNW) 3,783 7.2 -9.9°
Reaches altitude 10° 15:52:48 10° 340° (NNW) 2,849 6.6 -10.4°
Maximum altitude 15:59:33 87° 70° (ENE) 1,069 4.2 -11.8°
Drops below altitude 10° 16:06:26 10° 159° (SSE) 2,902 6.4 -13.3°
Sets 16:09:04 0° 160° (SSE) 3,856 7.0 -13.9°
